Location: Recife
(8.0585°S, 34.8848°W)
Time: 12:53:48
(UTC-03:00)

Vanguard 1 - Pass Details

Date: 18 April 2026
Orbit: 654 x 3817 km, 34.3° (Epoch: 11 May)

Event Time Altitude Azimuth Distance (km) Brightness Sun altitude
Rises 19:41:52 0° 254° (WSW) 5,677 14.8 -36.5°
Reaches altitude 10° 19:45:18 10° 260° (W) 5,041 14.3 -37.3°
Maximum altitude 20:00:09 44° 327° (NNW) 4,133 13.2 -41.0°
Drops below altitude 10° 20:21:23 10° 32° (NNE) 6,905 14.1 -46.2°
Sets 20:27:21 0° 39° (NE) 7,854 14.5 -47.7°
